Location: Newark
(43.6583°N, 1.6617°E)
Time: 18:28:01
(UTC+00:00)

Vanguard 1 Rocket - Pass Details

Date: 26 August 2019
Orbit: 650 x 4226 km, 34.3° (Epoch: 17 October)

Event Time Altitude Azimuth Distance (km) Brightness Sun altitude
Exits shadow 05:18:50 -1° 261° (W) 3,255 9.5 0.7°
Rises 05:19:00 0° 261° (W) 3,194 9.5 0.8°
Reaches altitude 10° 05:21:26 10° 246° (WSW) 2,468 9.0 1.2°
Maximum altitude 05:26:04 25° 191° (SSW) 2,048 9.0 2.0°
Drops below altitude 10° 05:33:04 10° 141° (SE) 3,841 11.0 3.3°
Sets 05:38:01 0° 130° (SE) 5,475 12.0 4.1°
